STARLINK-33774, 63721

Orbit data source: Space-Track

STARLINK-33774, 63721 is a payload satellite owned by SpaceX/Seattle (US) in LEO that was launched on Mon, 28 Apr 2025 UTC via an FALCON 9 launch vehicle from the Air Force Western Test Range (AFWTR). Payload-class satellites include a variety of spacecraft equipped with specific instruments for various scientific and technological missions. These include communications satellites like Starlink; space stations such as the ISS; scientific satellites like the Hubble; Earth observation satellites from companies like Planet Labs, Umbra, and HawkEye 360; GPS; miniature CubeSats for education and research; and military/defense satellites.

Loading next visibility...
Identifier
63721, 2025-087AA
Orbit
LEO
Country
Flag of USUS
Related business
Manufacturer
SpaceX/Seattle
Mission
Operational Commercial Communications
Bus & Motor
STARLINK V2MO, Unknown motor
Mass
575 kg wet, ~530 kg dry
Launch date (UTC)
2025-04-28 (1 year ago)
Launch vehicle
FALCON 9
Launch site
Air Force Western Test Range (AFWTR)
Object type
Payload
Rocket body
Debris
Shape & HBR
Box + 2 Pan, 17.7 m
Radar Cross Section
36.964 m², Large (>1 m²)

Expand to show TLE details & history
Last TLE update: 1 day ago

TLE from 1 day ago
0 STARLINK-33774
1 63721U 25087AA  26170.96208851  .00022740  00000-0  74175-3 0  9998
2 63721  53.1580 104.1098 0001789 101.8128 258.3074 15.31724436 64861
Epoch: 2026-06-19T23:05Z
TLE epoch observation values (Epoch: 2026-06-19T23:05:24.447Z)
Latitude
-0.00002°
Longitude
-150.42562°
Altitude
471.816 km
Speed
7.631 km/s
True Right ascension
06h 56m 26s
True Declination
0° 00' 00"
Sunlit
Object was in daylight at epoch
Visualization orbit readout
Latitude
Unknown
Longitude
Unknown
Altitude
Unknown
Speed
Unknown
Apparent Right ascension
Unknown
Apparent Declination
Unknown
Sunlit
N/A
Visualization observer readout
Local Sidereal Time
10:20:26
Azimuth
Unknown
Elevation
Unknown
Doppler factor
Unknown
Orbital elements
Apogee altitude
472.149 km
Perigee altitude
469.699 km
Semi-major axis
6,849.061 km
Eccentricity
0.00018
Inclination
53.158°
RAAN
104.1098°
Arg. of periapsis
101.8128°
True anomaly
258.28733°
Mean anomaly
258.3074°
Eccentric anomaly
258.29736°
Mean motion
3.8291 °/min
Orbital period
94.02 mins
BSTAR
0.00074175
Loading maneuver chart data...
Computing Atmospheric mass density...
Loading historical data...
Loading historical data...
Loading historical data...
Loading historical data...
Loading historical data...
Loading historical data...
Loading historical data...

Documentation

Showing up to 5 results
|